#timestamp,LO_Frequency,Hit,StdDev 
1507885215.4,286047002.5,N
1507885235.3,286047005.4,N
1507885255.1,286047000.2,N
1507885256.0,286047000.2,N
1507885275.8,286047000.0,N
1507885295.7,286046999.9,N
1507885315.5,286047002.1,N
1507885335.3,286047002.8,N
1507885355.1,286046996.6,N
1507885375.9,286046999.2,N
1507885395.7,286047000.4,N
1507885415.5,286047000.7,N
1507885435.4,286047002.3,N
1507885455.2,286047000.6,N
1507885475.0,286046997.5,N
1507885475.9,286046997.5,N
1507885495.8,286046994.6,N
1507885515.6,286046996.0,N
1507885535.4,286046993.3,N
1507885555.3,286046994.1,N
1507885575.1,286046995.3,N
1507885576.0,286046995.3,N
1507885595.8,286046997.3,N
1507885615.7,286046994.3,N
1507885635.5,286046994.0,N
1507885655.3,286046990.5,Y
1507885675.2,286046990.5,P
1507885695.9,286046992.5,N
1507885715.7,286046992.8,N
1507885735.6,286046992.2,N
1507885755.4,286046990.7,Y
1507885775.2,286046995.2,P
1507885795.1,286046998.3,N
1507885796.0,286046998.3,N
1507885815.8,286047002.1,N
1507885835.6,286046998.6,N
1507885855.5,286046999.3,N
1507885875.3,286047000.3,N
1507885895.1,286046999.8,N
1507885915.9,286047000.2,N
1507885935.7,286047002.6,N
1507885955.5,286046998.4,N
1507885975.3,286046998.4,N
1507885995.2,286046995.1,N
1507886015.0,286047000.5,N
1507886015.9,286047000.5,N
1507886035.7,286046998.9,N
1507886055.6,286046997.3,N
1507886075.4,286046999.1,N
1507886095.2,286046995.2,N
1507886115.1,286046996.0,N
1507886116.0,286046996.0,N
1507886135.8,286046996.4,N
1507886155.6,286046998.3,N
1507886175.5,286046995.0,N
1507886195.3,286046995.0,N
1507886215.1,286046997.6,N
1507886235.9,286046995.8,N
1507886255.7,286046992.7,Y
1507886275.5,286046991.7,P
1507886295.4,286046993.5,N
1507886315.2,286046994.1,N
1507886335.0,286046997.9,N
1507886335.9,286046997.9,N
1507886355.8,286046998.3,N
1507886375.6,286046996.6,N
1507886395.4,286046996.0,N
1507886415.2,286046995.0,N
1507886435.1,286046993.9,N
1507886436.0,286046993.9,N
1507886455.8,286046994.5,N
1507886475.6,286046994.7,N
1507886495.5,286046993.9,Y
1507886515.3,286047002.1,P
1507886535.1,286047003.8,N
1507886555.9,286047003.4,N
1507886575.7,286047002.1,N
1507886595.5,286046999.5,N
1507886615.4,286046999.3,N
1507886635.2,286047000.6,N
1507886655.0,286047000.1,N
1507886655.9,286047000.1,N
1507886675.8,286047001.8,N
1507886695.6,286047004.7,N
1507886715.4,286047004.5,N
1507886735.3,286047007.4,N
1507886755.1,286047006.8,N
1507886756.0,286047006.8,N
1507886775.8,286047004.1,N
1507886795.7,286047004.1,N
1507886815.5,286047005.2,N
1507886835.3,286047005.9,N
1507886855.2,286047000.4,N
1507886875.9,286047002.4,N
1507886895.7,286047003.4,N
1507886915.6,286047004.6,N
1507886935.4,286047005.9,N
1507886955.2,286047006.4,N
1507886975.0,286047010.3,Y
1507886976.0,286047010.3,P
1507886995.8,286047007.5,N
1507887015.6,286047007.6,N
1507887035.4,286047005.0,N
1507887055.3,286047005.1,N
1507887075.1,286047002.5,N
1507887095.8,286047005.5,N
1507887115.7,286047004.0,N
1507887135.5,286047005.6,N
1507887155.3,286047008.6,Y
1507887175.2,286046998.8,P
1507887195.9,286046998.6,N
1507887215.7,286047001.5,N
1507887235.6,286047003.2,N
1507887255.4,286046998.8,N
1507887275.2,286046998.9,N
1507887295.1,286046997.2,N
1507887296.0,286046997.2,N
1507887315.8,286046996.4,N
1507887335.6,286046995.4,N
1507887355.5,286046995.6,N
1507887375.3,286046993.7,N
1507887395.1,286046998.3,N
1507887415.8,286046999.7,N
1507887435.7,286047000.4,N
1507887455.5,286046995.4,N
1507887475.3,286046999.5,N
1507887495.2,286046998.5,N
1507887515.9,286046996.7,N
1507887535.7,286046997.8,N
1507887555.6,286046999.6,N
1507887575.4,286046998.8,N
1507887595.2,286047000.9,N
1507887615.1,286046999.2,N
1507887616.0,286046999.2,N
1507887635.8,286046999.2,N
1507887655.6,286046996.8,N
1507887675.5,286047000.7,N
1507887695.3,286046995.3,N
1507887715.1,286046995.6,N
1507887735.9,286046997.1,N
1507887755.7,286046996.7,N
1507887775.5,286046997.8,N
1507887795.3,286046995.0,N
1507887815.2,286046993.6,Y
1507887835.0,286046995.8,P
1507887835.9,286046995.8,P
1507887855.8,286046996.4,P
1507887875.6,286046991.7,Y
1507887895.4,286046999.4,P
1507887915.3,286046995.0,P
1507887935.1,286046996.7,N
1507887936.0,286046996.7,N
1507887955.8,286046999.5,N
1507887975.6,286047000.7,N
1507887995.5,286047002.8,N
1507888015.3,286047000.2,N
1507888035.1,286047002.7,N
1507888055.9,286047004.4,N
1507888075.7,286047001.0,N
1507888095.5,286046998.4,N
1507888115.4,286047003.4,N
1507888135.2,286047007.3,N
1507888155.0,286047007.9,N
1507888155.9,286047007.9,N
1507888175.8,286047007.1,N
1507888195.6,286047007.5,N
1507888215.4,286047005.0,N
1507888235.3,286047006.3,N
1507888255.1,286047008.0,N
1507888256.0,286047008.0,N
1507888275.8,286047012.1,N
1507888295.6,286047011.0,N
1507888315.5,286047010.2,N
1507888335.3,286047006.6,N
1507888355.1,286047007.4,N
1507888375.9,286047004.9,N
1507888395.7,286047004.5,N
1507888415.5,286047008.8,N
1507888435.4,286047005.0,N
1507888455.2,286047004.8,N
1507888475.0,286047009.0,N
1507888475.9,286047009.0,N
1507888495.8,286047007.5,N
1507888515.6,286047007.1,N
1507888535.4,286047006.3,N
1507888555.3,286047007.0,N
1507888575.1,286047006.8,N
1507888576.0,286047006.8,N
1507888595.8,286047008.6,Y
1507888615.7,286047002.5,P
1507888635.5,286047005.7,N
1507888655.3,286047002.7,N
1507888675.2,286047003.4,N
1507888695.9,286047003.9,N
1507888715.7,286047004.8,Y
1507888735.6,286046998.1,P
1507888755.8,286046997.5,N
1507888775.7,286046994.6,N
1507888795.5,286046994.8,N
